Location: Dover
(39.1580°N, 75.5250°W)
Time: 16:44:41
(UTC-04:00)

Daily predictions for brighter satellites

Satellite Brightness Start Highest point End
(mag) Time Altitude Azimuth Time Altitude Azimuth Time Altitude Azimuth
Tsikada Rocket 4.3 20:36:55 10° N 20:43:14 56° E 20:49:30 10° SSE
CZ-2D R/B 4.2 20:40:49 10° S 20:44:35 50° W 20:48:23 10° NNW
ATLAS CENTAUR R/B 3.9 20:39:30 10° SSW 20:44:56 59° ESE 21:00:45 10° NE
DNEPR-1 R/B 3.9 20:42:27 10° SW 20:46:38 73° WNW 20:51:21 10° NNE
Cosmos 2208 Rocket 4.0 20:41:44 10° S 20:46:49 60° ESE 20:51:55 10° NNE
Tiangong 2 1.3 20:44:03 10° WSW 20:47:12 74° NNW 20:50:21 10° ENE
USA 186 1.9 20:44:07 10° S 20:47:19 84° W 20:50:42 10° NNW
SL-16 R/B 3.1 20:43:02 10° N 20:48:14 35° ENE 20:53:23 10° SE
ATLAS 3B R/B 3.2 20:42:01 10° SW 20:49:14 72° NW 20:56:10 10° NNE
Envisat 3.8 20:44:33 10° S 20:49:29 53° W 20:54:28 10° NNW
Cosmos 1378 Rocket 3.5 20:48:41 10° S 20:52:58 74° E 20:57:17 10° N
COSMOS 2487 4.1 20:50:40 10° SW 20:53:58 40° WNW 20:57:18 10° N
Cosmos 1674 Rocket 4.3 20:50:50 10° SSW 20:55:14 60° W 20:59:40 10° N
Cosmos 1975 Rocket 3.7 20:52:54 10° SSE 20:56:51 36° E 21:00:49 10° NNE
Okean 3 4.1 20:52:39 10° SSW 20:56:54 62° W 21:01:09 10° N
Okean 1 Rocket 3.0 20:55:12 10° N 20:59:34 78° E 21:03:52 10° S
YAOGAN 6 3.3 20:56:39 10° S 21:00:17 57° W 21:03:56 10° NNW
Shenzhou-11 Module 3.1 20:58:00 10° WNW 21:00:49 40° N 21:03:39 10° ENE
Cosmos 1242 Rocket 3.1 21:02:36 10° N 21:06:04 39° ENE 21:09:13 12° SSE
Aureole 2 Rocket 4.3 21:07:32 10° NE 21:08:35 11° ENE 21:09:37 10° E
Thor Agena Rocket 4.2 21:05:55 10° N 21:11:08 62° WNW 21:16:15 10° SSW
BREEZE-M R/B 4.0 21:06:27 10° WSW 21:11:15 43° NNW 21:14:05 10° NE
Cosmos 2084 3.3 21:10:59 10° SSW 21:15:20 80° ESE 21:19:30 10° NE
Atlas Centaur 2 2.9 21:14:51 10° WSW 21:17:34 18° SSW 21:19:24 13° SSE
Cosmos 2233 Rocket 4.0 21:13:33 10° S 21:19:41 84° E 21:25:55 10° N
Cosmos 1975 2.9 21:18:23 10° N 21:22:26 80° W 21:26:26 10° S
SJ 16-02 3.4 21:23:26 10° NNE 21:26:03 15° ENE 21:28:17 11° E
Meteor 1-19 Rocket 4.3 21:21:12 10° S 21:27:05 76° E 21:33:01 10° NNE
Resurs 01 Rocket 2.5 21:23:03 10° S 21:27:18 48° W 21:31:35 10° NNW
Spot 2 Rocket 3.7 21:23:06 10° S 21:28:07 72° WSW 21:33:09 10° NNW
Cosmos 2360 Rocket 3.3 21:23:36 10° N 21:28:35 31° ENE 21:32:17 16° ESE
Cosmos 540 Rocket 4.4 21:27:11 15° SSE 21:30:31 28° E 21:34:54 10° NE
Cosmos 1980 Rocket 3.7 21:26:12 10° NW 21:31:11 33° WSW 21:36:10 10° SSW
Cosmos 2219 Rocket 4.4 21:30:47 10° NE 21:31:54 11° NE 21:33:01 10° ENE
Cosmos 468 Rocket 4.5 21:26:53 10° SSW 21:32:07 65° WNW 21:37:20 10° NNE
ATLAS CENTAUR R/B 3.8 21:30:23 10° WNW 21:33:49 21° WSW 21:37:20 10° SSW
ERS-2 3.9 21:31:05 10° SSW 21:34:19 29° W 21:37:35 10° NW
Cosmos 1937 Rocket 3.5 21:29:42 10° NNW 21:34:50 71° ENE 21:38:38 18° SSE
Cosmos 2298 Rocket 4.2 21:30:09 10° N 21:35:22 56° ENE 21:38:57 20° SE
BREEZE-M DEB (TANK) 2.5 21:33:02 10° WNW 21:35:25 28° SW 21:36:08 22° S
Cosmos 1666 3.1 21:31:53 10° NNW 21:35:43 63° W 21:39:27 10° S
Helios 1B rocket 4.2 21:35:12 10° ENE 21:37:35 15° E 21:37:37 15° E
Cosmos 1763 Rocket 3.5 21:32:56 10° SSW 21:38:15 88° ESE 21:43:34 10° NNE
Meteor 2-9 Rocket 4.1 21:36:53 10° N 21:42:13 66° E 21:46:08 19° SSE
Cosmos 841 Rocket 3.4 21:38:38 10° S 21:43:49 69° ESE 21:49:04 10° NNE
USA 32 4.1 21:42:27 10° N 21:47:40 64° E 21:51:10 21° SSE
EPKM 4.5 21:47:15 10° SW 21:47:47 10° SSW 21:48:15 10° SSW
Cosmos 1743 3.6 21:44:33 10° NNW 21:48:14 46° W 21:51:39 11° SSW
MetOp-A 4.1 21:44:35 18° SSE 21:48:35 78° ENE 21:53:57 10° N
SPOT 5 3.8 21:49:27 22° ESE 21:51:13 29° ENE 21:55:09 10° N
Meteor 1-23 Rocket 4.4 21:48:45 19° SSE 21:52:30 49° E 21:57:50 10° NNE
Iridium 2 4.1 21:49:31 10° SSW 21:53:15 61° W 21:57:04 10° N
Cosmos 2333 Rocket 4.3 21:51:12 10° NNE 21:54:17 15° NE 21:57:21 10° E
Terra 3.5 21:55:07 16° E 21:56:43 19° ENE 21:59:58 10° NNE
USA 234 3.6 21:50:28 10° NE 21:56:59 68° NW 22:03:29 10° WSW
COSMOS 2428 4.2 21:53:18 10° N 21:57:46 23° NE 22:00:36 16° E
Centaur D-1A AC-31 2.8 21:57:14 10° WSW 22:00:13 16° SSW 22:00:42 15° SSW
Cosmos 1513 Rocket 4.4 21:59:23 17° S 22:04:10 71° E 22:10:19 10° NNE
Cosmos 1833 4.1 21:58:33 10° SSW 22:04:18 82° ESE 22:10:01 10° NNE
Meteor 2-4 Rocket 3.8 21:59:20 10° SSW 22:04:44 74° W 22:10:19 10° N
Lacrosse 5 rocket 2.4 22:01:40 10° NNW 22:05:40 36° NE 22:07:25 25° E
Cosmos 2034 Rocket 4.0 22:03:34 23° SSE 22:07:29 60° E 22:13:31 10° NNE
ERS-1 Rocket 2.9 22:07:45 29° SSE 22:10:21 82° ENE 22:15:23 10° N
Cosmos 1464 Rocket 4.0 22:05:11 13° S 22:10:59 89° E 22:17:24 10° N
Cosmos 1025 Rocket 3.7 22:14:39 34° ESE 22:15:01 35° E 22:18:59 10° NNE
ISS -0.5 22:13:43 10° NW 22:15:09 12° NNW 22:16:34 10° NNE
USA 245 3.1 22:16:24 52° SSE 22:17:13 88° E 22:21:29 10° NNW
Cosmos 1515 3.7 22:16:59 34° SSW 22:18:35 79° W 22:22:25 10° N
Cosmos 1356 3.9 22:17:03 29° SSW 22:18:35 60° W 22:22:02 10° N
SPOT 1/Viking Rocket 3.7 22:16:50 35° SE 22:18:49 58° ENE 22:23:53 10° N
ARGOS 3.7 22:15:18 19° S 22:19:01 54° W 22:24:20 10° NNW
Cosmos 2322 3.9 22:15:48 10° NNW 22:21:30 61° ENE 22:23:44 36° SE
H-2A R/B 2.3 22:19:42 26° S 22:22:25 61° W 22:27:25 10° NNW
Cosmos 2322 Rocket 3.2 22:17:39 10° NW 22:22:51 39° WSW 22:26:18 19° SSW
Tiangong 2 2.3 22:21:09 10° WNW 22:24:09 40° N 22:25:10 30° NE
Cosmos 1455 Rocket 3.7 22:20:49 10° NNW 22:25:03 50° W 22:27:13 26° SSW
CENTAUR R/B 3.0 22:19:47 10° SW 22:25:38 62° NW 22:32:25 10° NNE
Cosmos 2237 Rocket 4.3 22:23:22 10° NNE 22:26:26 15° NE 22:29:13 11° E
Cosmos 1340 Rocket 4.1 22:25:14 13° SW 22:28:30 39° WNW 22:32:22 10° N
Cosmos 1066 Rocket 4.4 22:30:19 41° SE 22:31:26 47° E 22:36:36 10° NNE
SL-16 R/B 3.6 22:27:17 10° NW 22:32:12 31° WSW 22:35:44 17° SSW
Cosmos 1125 Rocket 3.7 22:27:07 10° N 22:32:18 57° ENE 22:33:42 43° ESE
Meteor 1-29 4.0 22:29:03 10° NNE 22:31:30 35° ENE 22:31:30 35° ENE
Shenzhou-11 Module 3.2 22:34:03 10° WNW 22:36:03 38° W 22:36:03 38° W
DMSP B5D2-2 4.3 22:35:08 10° N 22:40:25 72° WNW 22:43:34 25° SSW
Helios 1A 3.1 22:41:57 54° SSW 22:42:41 67° WSW 22:46:51 10° NNW
Aureole 2 Rocket 4.1 22:41:08 10° NW 22:43:07 21° W 22:43:07 21° W
Cosmos 2219 3.3 22:48:54 49° SE 22:49:40 53° ESE 22:55:15 10° NNE
Cosmos 2237 4.2 22:45:37 10° NNW 22:51:22 79° WSW 22:52:57 49° S
Okean 2 3.6 22:50:55 54° SW 22:51:38 66° W 22:55:48 10° N
Nimbus 7 Rocket 4.3 22:54:01 10° NNE 22:59:54 68° ESE 23:01:13 52° SSE
CZ-4C R/B 3.1 22:52:53 10° NNW 23:00:06 64° NE 23:03:19 38° ESE
Cosmos 1356 Rocket 3.8 23:03:26 55° WSW 23:03:58 60° W 23:08:15 10° N
SJ 16-02 1.9 23:00:39 10° NNW 23:04:56 48° WSW 23:05:18 47° WSW
Okean 1-7 Rocket 3.6 23:05:55 73° ENE 23:05:55 73° ENE 23:10:18 10° NNE
Cosmos 1544 3.9 23:02:23 10° N 23:05:13 48° NNE 23:05:13 48° NNE
COSMOS 2455 4.0 23:07:46 27° E 23:07:46 27° E 23:11:39 10° NE
Cosmos 2360 Rocket 3.2 23:07:29 10° NW 23:12:34 36° WSW 23:14:04 31° SW
Helios 1B rocket 3.5 23:09:08 10° N 23:13:02 40° WNW 23:13:58 35° WSW
Cosmos 2228 4.1 23:09:41 10° N 23:12:59 35° NE 23:12:59 35° NE
CZ-2C R/B 2.8 23:08:58 10° NNE 23:14:32 59° E 23:14:47 58° ESE
Cosmos 2333 4.1 23:09:26 10° NNW 23:15:08 82° WSW 23:15:58 65° S
Landsat 7 4.4 23:14:40 43° SW 23:15:20 46° W 23:19:55 10° NNW
Cosmos 2219 Rocket 2.1 23:11:21 10° NNW 23:16:56 68° ENE 23:17:36 62° ESE
Cosmos 1726 Rocket 4.0 23:13:32 10° N 23:17:20 52° NE 23:17:20 52° NE
Cosmos 1092 Rocket 4.0 23:12:43 10° N 23:19:05 76° W 23:20:43 52° SSW
IGS 5A 4.2 23:21:30 47° W 23:21:30 47° W 23:25:18 10° NNW
SPOT 5 4.4 23:28:41 22° WSW 23:29:18 23° W 23:32:54 10° NW
Cosmos 2058 Rocket 3.7 23:27:50 10° N 23:31:33 50° NE 23:31:33 50° NE
Iridium 4 Rocket 4.3 23:33:12 44° E 23:33:12 44° E 23:38:44 10° NNE
Terra 2.5 23:33:59 45° WSW 23:34:05 45° W 23:38:40 10° NNW
Cosmos 2333 Rocket 2.0 23:33:36 10° NNW 23:39:21 89° WSW 23:39:38 82° SSE
CZ-2C R/B 3.4 23:41:20 57° WSW 23:41:42 58° W 23:47:14 10° NNW
COSMOS 2428 3.0 23:36:49 10° NNW 23:42:18 51° WSW 23:42:36 51° WSW
SL-16 R/B 3.8 23:39:00 10° N 23:43:28 23° NE 23:44:53 21° ENE
Lacrosse 5 rocket 3.4 23:41:13 10° WNW 23:43:05 20° W 23:43:05 20° W
ALOS 2 4.3 23:46:19 24° NE 23:46:19 24° NE 23:49:17 10° NNE
NOSS 0 Rocket 3.8 23:39:53 10° NNW 23:46:10 81° ENE 23:46:47 73° SE
Cosmos 2026 Rocket 3.9 23:42:30 10° NNW 23:48:37 70° W 23:49:21 63° SW
Cosmos 2279 Rocket 3.8 23:50:12 72° SSW 23:50:55 86° W 23:57:10 10° N
SL-19 R/B 4.5 23:45:33 10° NNE 23:51:28 60° E 23:51:28 60° E
Cosmos 1655 Rocket 3.9 23:46:04 10° N 23:52:29 81° E 23:53:03 73° SE
Cosmos 1980 3.7 23:47:46 10° NNW 23:53:26 71° ENE 23:53:29 71° ENE
Cosmos 1953 4.1 23:49:54 10° NNE 23:52:04 25° NE 23:52:04 25° NE
